| time (UTC) | temp C | wind direction | speed KPH | gust KPH | rain 1hr cm | rain 24hr cm | rain mn cm | humidity % | barometer mb |
| 20260504081656 | 12 | 188 | 8.0 | 14.5 | 0.00 | 0.00 | 0.00 | 71 | 1006.4 |
| 20260504081157 | 12 | 219 | 8.0 | 14.5 | 0.00 | 0.00 | 0.00 | 71 | 1006.6 |
| 20260504080657 | 12 | 224 | 6.4 | 16.1 | 0.00 | 0.00 | 0.00 | 71 | 1006.7 |
| 20260504080132 | 11 | 197 | 6.4 | 16.1 | 0.00 | 0.00 | 0.00 | 71 | 1006.7 |
| 20260504060144 | 11 | 217 | 8.0 | 17.7 | 0.00 | 0.00 | 0.00 | 69 | 1008.2 |
| 20260504050322 | 11 | 192 | 8.0 | 12.9 | 0.00 | 0.00 | 0.00 | 73 | 1009.1 |
| 20260504045821 | 11 | 202 | 8.0 | 17.7 | 0.00 | 0.00 | 0.00 | 73 | 1009.2 |
| 20260504045316 | 11 | 215 | 8.0 | 17.7 | 0.00 | 0.00 | 0.00 | 73 | 1009.2 |
| 20260504044748 | 11 | 205 | 6.4 | 12.9 | 0.00 | 0.00 | 0.00 | 73 | 1009.2 |
| 20260504044246 | 11 | 173 | 6.4 | 11.3 | 0.00 | 0.00 | 0.00 | 73 | 1009.4 |
| 20260504043738 | 11 | 215 | 6.4 | 12.9 | 0.00 | 0.00 | 0.00 | 73 | 1009.4 |
| 20260504043232 | 11 | 205 | 6.4 | 14.5 | 0.00 | 0.00 | 0.00 | 74 | 1009.3 |
| 20260504042729 | 11 | 209 | 6.4 | 14.5 | 0.00 | 0.00 | 0.00 | 75 | 1009.4 |
| 20260504042226 | 11 | 201 | 8.0 | 14.5 | 0.00 | 0.00 | 0.00 | 75 | 1009.4 |
| 20260504041659 | 11 | 208 | 8.0 | 14.5 | 0.00 | 0.00 | 0.00 | 76 | 1009.5 |
| 20260504041158 | 11 | 248 | 8.0 | 16.1 | 0.00 | 0.00 | 0.00 | 76 | 1009.5 |
| 20260504040629 | 11 | 198 | 8.0 | 16.1 | 0.00 | 0.00 | 0.00 | 76 | 1009.6 |
| 20260504040125 | 11 | 196 | 8.0 | 14.5 | 0.00 | 0.00 | 0.00 | 77 | 1009.8 |
| 20260504035626 | 11 | 219 | 6.4 | 14.5 | 0.00 | 0.00 | 0.00 | 77 | 1009.9 |
| 20260504035126 | 11 | 227 | 8.0 | 14.5 | 0.00 | 0.00 | 0.00 | 76 | 1009.9 |
| 20260504034611 | 11 | 223 | 8.0 | 14.5 | 0.00 | 0.00 | 0.00 | 77 | 1010.0 |
| 20260504034109 | 11 | 199 | 8.0 | 14.5 | 0.00 | 0.00 | 0.00 | 77 | 1010.1 |
| 20260504033608 | 11 | 201 | 8.0 | 14.5 | 0.00 | 0.00 | 0.00 | 77 | 1010.1 |
| 20260504033108 | 11 | 214 | 8.0 | 14.5 | 0.00 | 0.00 | 0.00 | 77 | 1010.1 |
| 20260504032608 | 11 | 196 | 6.4 | 12.9 | 0.00 | 0.00 | 0.00 | 76 | 1010.1 |
| 20260504032105 | 11 | 187 | 6.4 | 14.5 | 0.00 | 0.00 | 0.00 | 76 | 1010.1 |
| 20260504031606 | 11 | 188 | 6.4 | 14.5 | 0.00 | 0.00 | 0.00 | 75 | 1010.2 |
| 20260504031102 | 11 | 202 | 6.4 | 12.9 | 0.00 | 0.00 | 0.00 | 76 | 1010.2 |
| 20260504030607 | 11 | 204 | 6.4 | 12.9 | 0.00 | 0.00 | 0.00 | 75 | 1010.4 |
| 20260504030029 | 11 | 169 | 6.4 | 12.9 | 0.00 | 0.00 | 0.00 | 75 | 1010.5 |
| 20260504025539 | 11 | 215 | 6.4 | 12.9 | 0.00 | 0.00 | 0.00 | 75 | 1010.5 |
| 20260504025028 | 11 | 196 | 6.4 | 12.9 | 0.00 | 0.00 | 0.00 | 74 | 1010.6 |
| 20260504024510 | 11 | 200 | 6.4 | 12.9 | 0.00 | 0.00 | 0.00 | 74 | 1010.5 |
| 20260504023934 | 11 | 205 | 6.4 | 12.9 | 0.00 | 0.00 | 0.00 | 73 | 1010.6 |
| 20260504023431 | 11 | 208 | 4.8 | 14.5 | 0.00 | 0.00 | 0.00 | 73 | 1010.6 |
| 20260504022929 | 11 | 211 | 4.8 | 14.5 | 0.00 | 0.00 | 0.00 | 73 | 1010.6 |
| 20260504022425 | 11 | 199 | 4.8 | 11.3 | 0.00 | 0.00 | 0.00 | 72 | 1010.6 |
| 20260504021921 | 11 | 182 | 6.4 | 9.7 | 0.00 | 0.00 | 0.00 | 72 | 1010.7 |
| 20260504021355 | 11 | 207 | 6.4 | 14.5 | 0.00 | 0.00 | 0.00 | 72 | 1010.6 |
| 20260504020830 | 11 | 209 | 6.4 | 14.5 | 0.00 | 0.00 | 0.00 | 71 | 1010.6 |
| 20260504020327 | 11 | 192 | 4.8 | 14.5 | 0.00 | 0.00 | 0.00 | 71 | 1010.7 |
| 20260504015823 | 11 | 213 | 4.8 | 14.5 | 0.00 | 0.00 | 0.00 | 70 | 1010.7 |
| 20260504015319 | 11 | 190 | 4.8 | 12.9 | 0.00 | 0.00 | 0.00 | 71 | 1010.7 |
| 20260504014753 | 11 | 217 | 4.8 | 11.3 | 0.00 | 0.00 | 0.00 | 71 | 1010.7 |
| 20260504014250 | 11 | 228 | 4.8 | 11.3 | 0.00 | 0.00 | 0.00 | 70 | 1010.7 |
| 20260504013749 | 11 | 211 | 6.4 | 14.5 | 0.00 | 0.00 | 0.00 | 71 | 1010.7 |
| 20260504013223 | 11 | 222 | 6.4 | 14.5 | 0.00 | 0.00 | 0.00 | 71 | 1010.7 |
| 20260504012718 | 11 | 213 | 4.8 | 14.5 | 0.00 | 0.00 | 0.00 | 71 | 1010.7 |
| 20260504012216 | 11 | 209 | 6.4 | 14.5 | 0.00 | 0.00 | 0.00 | 71 | 1010.7 |
| 20260504011650 | 11 | 238 | 6.4 | 12.9 | 0.00 | 0.00 | 0.00 | 70 | 1010.7 |
| 20260504011130 | 12 | 205 | 8.0 | 17.7 | 0.00 | 0.00 | 0.00 | 70 | 1010.7 |
| 20260504010621 | 12 | 206 | 8.0 | 17.7 | 0.00 | 0.00 | 0.00 | 70 | 1010.8 |
| 20260504010053 | 12 | 240 | 8.0 | 22.5 | 0.00 | 0.00 | 0.00 | 70 | 1010.9 |
| 20260504005526 | 12 | 228 | 9.7 | 22.5 | 0.00 | 0.00 | 0.00 | 70 | 1010.9 |
| 20260504005024 | 12 | 241 | 9.7 | 24.1 | 0.00 | 0.00 | 0.00 | 70 | 1011.0 |
| 20260504004500 | 12 | 256 | 8.0 | 24.1 | 0.00 | 0.00 | 0.00 | 71 | 1010.8 |
| 20260504003928 | 12 | 221 | 9.7 | 24.1 | 0.00 | 0.00 | 0.00 | 71 | 1010.8 |
| 20260504003429 | 12 | 246 | 11.3 | 27.4 | 0.00 | 0.00 | 0.00 | 71 | 1010.9 |
| 20260504002920 | 12 | 239 | 9.7 | 27.4 | 0.00 | 0.00 | 0.00 | 70 | 1010.8 |
| 20260504002417 | 12 | 249 | 9.7 | 24.1 | 0.00 | 0.00 | 0.00 | 70 | 1010.8 |
| 20260504001850 | 12 | 238 | 9.7 | 29.0 | 0.00 | 0.00 | 0.00 | 70 | 1010.8 |
| 20260504001349 | 13 | 283 | 11.3 | 29.0 | 0.00 | 0.00 | 0.00 | 70 | 1010.7 |
| 20260504000820 | 13 | 248 | 12.9 | 33.8 | 0.00 | 0.00 | 0.00 | 69 | 1010.7 |
| 20260504000318 | 13 | 246 | 12.9 | 33.8 | 0.00 | 0.00 | 0.00 | 68 | 1010.6 |
| 20260503235759 | 13 | 267 | 12.9 | 22.5 | 0.00 | 0.00 | 0.00 | 66 | 1010.5 |
| 20260503235224 | 13 | 274 | 11.3 | 24.1 | 0.00 | 0.00 | 0.00 | 64 | 1010.4 |
| 20260503234724 | 14 | 238 | 11.3 | 24.1 | 0.00 | 0.00 | 0.00 | 61 | 1010.4 |
| 20260503234224 | 15 | 254 | 9.7 | 22.5 | 0.00 | 0.00 | 0.00 | 52 | 1010.3 |
| 20260503233723 | 15 | 216 | 9.7 | 20.9 | 0.00 | 0.00 | 0.00 | 51 | 1010.3 |
| 20260503233223 | 15 | 242 | 9.7 | 24.1 | 0.00 | 0.00 | 0.00 | 50 | 1010.2 |
| 20260503232729 | 15 | 289 | 8.0 | 24.1 | 0.00 | 0.00 | 0.00 | 51 | 1010.2 |
| 20260503232223 | 15 | 256 | 9.7 | 19.3 | 0.00 | 0.00 | 0.00 | 52 | 1010.3 |
| 20260503231720 | 15 | 226 | 9.7 | 22.5 | 0.00 | 0.00 | 0.00 | 51 | 1010.3 |
| 20260503231155 | 15 | 221 | 9.7 | 20.9 | 0.00 | 0.00 | 0.00 | 51 | 1010.3 |
| 20260503230651 | 15 | 261 | 9.7 | 27.4 | 0.00 | 0.00 | 0.00 | 51 | 1010.3 |
| 20260503230124 | 15 | 283 | 11.3 | 27.4 | 0.00 | 0.00 | 0.00 | 49 | 1010.3 |
| 20260503225622 | 15 | 235 | 11.3 | 27.4 | 0.00 | 0.00 | 0.00 | 51 | 1010.4 |
| 20260503225054 | 15 | 234 | 11.3 | 27.4 | 0.00 | 0.00 | 0.00 | 49 | 1010.4 |
| 20260503224552 | 16 | 212 | 9.7 | 22.5 | 0.00 | 0.00 | 0.00 | 49 | 1010.4 |
| 20260503224025 | 16 | 308 | 8.0 | 19.3 | 0.00 | 0.00 | 0.00 | 50 | 1010.5 |
| 20260503223521 | 16 | 221 | 9.7 | 19.3 | 0.00 | 0.00 | 0.00 | 49 | 1010.5 |
| 20260503223019 | 16 | 226 | 11.3 | 27.4 | 0.00 | 0.00 | 0.00 | 49 | 1010.4 |
| 20260503222450 | 16 | 191 | 11.3 | 27.4 | 0.00 | 0.00 | 0.00 | 49 | 1010.6 |
| 20260503221948 | 16 | 262 | 11.3 | 19.3 | 0.00 | 0.00 | 0.00 | 48 | 1010.4 |
| 20260503221436 | 16 | 250 | 9.7 | 20.9 | 0.00 | 0.00 | 0.00 | 47 | 1010.5 |
| 20260503220935 | 16 | 247 | 9.7 | 25.7 | 0.00 | 0.00 | 0.00 | 48 | 1010.5 |
| 20260503220409 | 16 | 266 | 9.7 | 25.7 | 0.00 | 0.00 | 0.00 | 47 | 1010.5 |
| 20260503215906 | 16 | 242 | 11.3 | 27.4 | 0.00 | 0.00 | 0.00 | 49 | 1010.6 |
| 20260503215337 | 16 | 244 | 11.3 | 27.4 | 0.00 | 0.00 | 0.00 | 47 | 1010.7 |
| 20260503214838 | 16 | 212 | 11.3 | 27.4 | 0.00 | 0.00 | 0.00 | 47 | 1010.7 |
| 20260503214329 | 16 | 211 | 11.3 | 24.1 | 0.00 | 0.00 | 0.00 | 47 | 1010.6 |
| 20260503213804 | 17 | 231 | 9.7 | 22.5 | 0.00 | 0.00 | 0.00 | 47 | 1010.7 |
| 20260503213243 | 17 | 285 | 9.7 | 20.9 | 0.00 | 0.00 | 0.00 | 47 | 1010.6 |
| 20260503212733 | 17 | 220 | 9.7 | 16.1 | 0.00 | 0.00 | 0.00 | 48 | 1010.7 |
| 20260503212208 | 17 | 269 | 9.7 | 19.3 | 0.00 | 0.00 | 0.00 | 48 | 1010.7 |
| 20260503211644 | 17 | 239 | 9.7 | 33.8 | 0.00 | 0.00 | 0.00 | 49 | 1010.7 |
| 20260503211115 | 17 | 213 | 11.3 | 33.8 | 0.00 | 0.00 | 0.00 | 49 | 1010.8 |
| 20260503210616 | 17 | 244 | 11.3 | 27.4 | 0.00 | 0.00 | 0.00 | 47 | 1010.8 |
| 20260503210046 | 17 | 263 | 11.3 | 27.4 | 0.00 | 0.00 | 0.00 | 47 | 1010.8 |
| 20260503205523 | 17 | 211 | 9.7 | 22.5 | 0.00 | 0.00 | 0.00 | 48 | 1010.9 |
| 20260503204959 | 17 | 245 | 9.7 | 20.9 | 0.00 | 0.00 | 0.00 | 48 | 1010.9 |
| 20260503204457 | 17 | 265 | 9.7 | 20.9 | 0.00 | 0.00 | 0.00 | 48 | 1010.9 |
| 20260503203957 | 17 | 207 | 11.3 | 20.9 | 0.00 | 0.00 | 0.00 | 49 | 1010.9 |
| 20260503203449 | 17 | 251 | 11.3 | 25.7 | 0.00 | 0.00 | 0.00 | 47 | 1010.9 |
| 20260503202925 | 17 | 227 | 9.7 | 24.1 | 0.00 | 0.00 | 0.00 | 47 | 1011.1 |
| 20260503202405 | 17 | 196 | 9.7 | 24.1 | 0.00 | 0.00 | 0.00 | 49 | 1011.1 |
| 20260503201906 | 17 | 234 | 11.3 | 24.1 | 0.00 | 0.00 | 0.00 | 46 | 1011.0 |
| 20260503201338 | 17 | 211 | 9.7 | 24.1 | 0.00 | 0.00 | 0.00 | 49 | 1011.1 |
| 20260503200830 | 17 | 254 | 11.3 | 25.7 | 0.00 | 0.00 | 0.00 | 49 | 1011.1 |
| 20260503200329 | 17 | 213 | 11.3 | 25.7 | 0.00 | 0.00 | 0.00 | 48 | 1011.1 |
| 20260503195828 | 17 | 241 | 11.3 | 20.9 | 0.00 | 0.00 | 0.00 | 47 | 1011.2 |
| 20260503195329 | 17 | 195 | 11.3 | 22.5 | 0.00 | 0.00 | 0.00 | 47 | 1011.2 |
| 20260503194803 | 17 | 267 | 9.7 | 22.5 | 0.00 | 0.00 | 0.00 | 46 | 1011.3 |
| 20260503194258 | 17 | 280 | 11.3 | 22.5 | 0.00 | 0.00 | 0.00 | 46 | 1011.4 |
| 20260503193803 | 17 | 254 | 11.3 | 25.7 | 0.00 | 0.00 | 0.00 | 49 | 1011.5 |
| 20260503193259 | 17 | 224 | 12.9 | 29.0 | 0.00 | 0.00 | 0.00 | 46 | 1011.5 |
| 20260503192748 | 17 | 189 | 11.3 | 29.0 | 0.00 | 0.00 | 0.00 | 46 | 1011.6 |
| 20260503192245 | 17 | 219 | 11.3 | 24.1 | 0.00 | 0.00 | 0.00 | 47 | 1011.7 |
| 20260503191745 | 17 | 265 | 9.7 | 22.5 | 0.00 | 0.00 | 0.00 | 46 | 1011.7 |
| 20260503191248 | 17 | 193 | 9.7 | 22.5 | 0.00 | 0.00 | 0.00 | 48 | 1011.8 |
| 20260503190728 | 17 | 178 | 9.7 | 22.5 | 0.00 | 0.00 | 0.00 | 48 | 1012.0 |
| 20260503190207 | 17 | 230 | 11.3 | 27.4 | 0.00 | 0.00 | 0.00 | 46 | 1012.0 |
| 20260503185654 | 17 | 221 | 9.7 | 27.4 | 0.00 | 0.00 | 0.00 | 48 | 1012.0 |
| 20260503185151 | 17 | 221 | 9.7 | 24.1 | 0.00 | 0.00 | 0.00 | 52 | 1012.2 |
| 20260503184628 | 16 | 244 | 11.3 | 30.6 | 0.00 | 0.00 | 0.00 | 48 | 1012.2 |
| 20260503184102 | 16 | 252 | 12.9 | 30.6 | 0.00 | 0.00 | 0.00 | 48 | 1012.3 |
| 20260503183606 | 16 | 250 | 11.3 | 27.4 | 0.00 | 0.00 | 0.00 | 47 | 1012.4 |
| 20260503183041 | 16 | 249 | 9.7 | 25.7 | 0.00 | 0.00 | 0.00 | 49 | 1012.5 |
| 20260503182544 | 16 | 157 | 9.7 | 25.7 | 0.00 | 0.00 | 0.00 | 49 | 1012.5 |
| 20260503182022 | 16 | 254 | 11.3 | 25.7 | 0.00 | 0.00 | 0.00 | 48 | 1012.6 |
| 20260503181458 | 16 | 268 | 11.3 | 20.9 | 0.00 | 0.00 | 0.00 | 48 | 1012.6 |
| 20260503180934 | 16 | 261 | 9.7 | 25.7 | 0.00 | 0.00 | 0.00 | 48 | 1012.8 |
| 20260503180433 | 16 | 239 | 9.7 | 24.1 | 0.00 | 0.00 | 0.00 | 48 | 1012.8 |
| 20260503175929 | 16 | 221 | 9.7 | 24.1 | 0.00 | 0.00 | 0.00 | 49 | 1012.9 |
| 20260503175428 | 16 | 236 | 11.3 | 27.4 | 0.00 | 0.00 | 0.00 | 48 | 1013.0 |
| 20260503174906 | 16 | 244 | 9.7 | 27.4 | 0.00 | 0.00 | 0.00 | 51 | 1013.0 |
| 20260503174344 | 16 | 252 | 9.7 | 17.7 | 0.00 | 0.00 | 0.00 | 53 | 1013.0 |
| 20260503173813 | 16 | 226 | 9.7 | 22.5 | 0.00 | 0.00 | 0.00 | 51 | 1013.0 |
| 20260503173311 | 16 | 268 | 11.3 | 25.7 | 0.00 | 0.00 | 0.00 | 52 | 1013.2 |
| 20260503172807 | 16 | 253 | 9.7 | 25.7 | 0.00 | 0.00 | 0.00 | 56 | 1013.2 |
| 20260503172305 | 16 | 235 | 9.7 | 22.5 | 0.00 | 0.00 | 0.00 | 55 | 1013.3 |
| 20260503171740 | 15 | 218 | 9.7 | 22.5 | 0.00 | 0.00 | 0.00 | 56 | 1013.4 |
| 20260503171215 | 15 | 213 | 9.7 | 20.9 | 0.00 | 0.00 | 0.00 | 56 | 1013.5 |
| 20260503170647 | 15 | 214 | 9.7 | 25.7 | 0.00 | 0.00 | 0.00 | 57 | 1013.6 |
| 20260503170122 | 15 | 252 | 8.0 | 25.7 | 0.00 | 0.00 | 0.00 | 58 | 1013.6 |
| 20260503150543 | 12 | 270 | 9.7 | 22.5 | 0.00 | 0.00 | 0.00 | 61 | 1014.4 |
| 20260503140248 | 10 | 246 | 9.7 | 30.6 | 0.00 | 0.00 | 0.00 | 66 | 1014.7 |
| 20260503131104 | 8 | 248 | 8.0 | 14.5 | 0.00 | 0.00 | 0.00 | 67 | 1014.8 |
| 20260503130557 | 8 | 249 | 8.0 | 16.1 | 0.00 | 0.00 | 0.00 | 66 | 1014.9 |
| 20260503110612 | 5 | 217 | 6.4 | 12.9 | 0.00 | 0.00 | 0.00 | 74 | 1015.0 |
| 20260503110113 | 5 | 250 | 4.8 | 12.9 | 0.00 | 0.00 | 0.00 | 75 | 1015.0 |